Weather Roundup
Issued by NWS Corpus Christi, TX

Home | Current Version | Previous Version | Text Only | Print | Product List | Glossary On
Versions: 1 2 3 4 5 6 7 8 9 10 11 12 13 14 15 16 17 18 19 20 21 22 23 24 25 26 27 28 29 30 31 32 33 34 35 36 37 38 39 40 41 42 43 44 45 46 47 48 49 50
000
ASUS44 KCRP 270210
HRRCRP

SOUTH TEXAS REGIONAL WEATHER ROUNDUP
NATIONAL WEATHER SERVICE CORPUS CHRISTI TX
800 PM CST SUN FEB 26 2017


TXZ229>244-270300-
...CORPUS CHRISTI AREA OBSERVATIONS...

CITY           SKY/WX    TMP DP  RH WIND       PRES   REMARKS
CORPUS CHRISTI CLEAR     71  67  87 S20       29.85R
NAS CORPUS CHR CLEAR     71  70  96 S20       29.87R
ROCKPORT       CLEAR     72  67  84 SE12G22   29.88R
KINGSVILLE NAS CLEAR     72  68  87 SE16      29.84R
ALICE          CLEAR     72  66  81 SE12      29.84R
ORANGE GROVE   CLEAR     72  68  87 SE16G22   29.86R
FALFURRIAS     CLEAR     75  64  68 SE12      29.84R
$$

...VICTORIA AREA OBSERVATIONS...

CITY           SKY/WX    TMP DP  RH WIND       PRES   REMARKS
VICTORIA       CLOUDY    69  65  86 SE7       29.90R
BEEVILLE       FAIR      70  70 100 SE12      29.86F
PLEASANTON     CLEAR     71  64  77 SE8       29.85R
SAN ANTONIO    CLOUDY    71  64  78 SE9       29.87R
$$

...LAREDO AREA OBSERVATIONS...

CITY           SKY/WX    TMP DP  RH WIND       PRES   REMARKS
LAREDO         CLEAR     76  55  48 E3        29.80S
COTULLA        CLEAR     75  56  51 E6        29.81R
DEL RIO        CLOUDY    66  56  70 E10       29.82S
MCALLEN        CLEAR     76  65  68 SE20G25   29.86R
HEBBRONVILLE   CLEAR     76  61  60 S12       29.85R
$$

...OTHER TEXAS OBSERVATIONS...

CITY           SKY/WX    TMP DP  RH WIND       PRES   REMARKS
BROWNSVILLE    NOT AVBL
HOUSTON        MOCLDY    68  61  78 SE13      29.94S
COL. STATION   CLOUDY    68  60  75 SE15      29.90S
AUSTIN         CLOUDY    68  64  87 SE7       29.89R
WACO           CLOUDY    60  56  86 S3        29.89R
FORT WORTH     CLOUDY    59  53  80 NE7       29.88R
WICHITA FALLS  CLOUDY    52  39  61 N7        29.88R
LUBBOCK        MOCLDY    56  18  22 W5        29.87R
EL PASO        MOCLDY    61  17  18 NW10      29.89R
$$

...MARINE OBSERVATIONS...

STATION/POSITION TIME  SKY/WX   TEMP    WIND        PRES    VSBY  WAVE   SWELL
                                AIR SEA DIR/SP/G                  HT/PER HT/PER
                 (UTC)          (F)     (DEG/KT/KT) (MB)    (MI)  (FT/S) (FT/S)
PORT ARANSAS     0100            69 67  130/ 18/ 19 1010.6F
BUOY 90 E PORT A 0050            72 70  130/ 16/ 17 1012.8          5/ 6
BUOY 45 SE BAFFI 0050            74     160/ 17/ 21 1010.9          5/ 6
BUOY 200 E PT IS 0050            74 74  120/ 16/ 17 1013.8          5/ 6
BUOY 15 E GALVES 0050            67 66  110/ 14/ 16 1014.1          4/ 6
$$




USA.gov is the U.S. government's official web portal to all federal, state and local government web resources and services.